Cloud_Cover
100 47 5 98 100 100 100 100 100 87 100 100 100 100 100 100 100 100 100 100 100 100 100 100 100 100 100 100 100 100 100 63 78 42 8 16 40 5 7 0 0 0 3 15 41 59 36 0 38 5 4 0 0 0
98 100 5 92 53 100 100 100 100 100 100 98 100 100 100 100 100 100 100 100 100 100 100 100 100 100 100 100 100 100 100 100 100 84 53 42 11 15 5 5 0 3 0 4 3 4 0 3 2 0 0 4 0 0
86 87 34 46 97 100 100 100 100 100 98 100 100 100 100 100 100 100 100 100 100 100 100 100 100 100 100 100 100 100 100 100 100 99 95 27 5 21 5 5 0 2 0 3 1 0 0 0 0 0 0 0 0 1
79 100 15 49 100 100 100 100 100 100 100 100 100 100 100 100 100 100 100 100 100 100 100 100 100 100 100 100 100 100 100 100 100 100 100 94 7 52 6 4 4 4 0 0 0 0 0 0 0 0 0 4 2 0
14 11 19 5 100 100 100 100 100 100 100 100 100 100 100 100 100 100 100 100 100 100 100 100 100 100 100 100 100 100 100 100 100 100 100 100 13 32 31 5 37 5 4 5 5 0 0 0 0 0 0 0 0 0
100 23 10 56 100 100 100 100 100 100 100 100 100 100 100 100 100 100 100 100 100 100 100 100 100 100 100 100 100 100 100 100 100 100 100 100 66 18 89 44 37 9 5 5 0 0 0 0 0 0 0 0 0 5
100 24 5 100 100 100 100 100 100 100 100 100 100 100 100 100 100 100 100 100 100 100 100 100 100 95 100 100 100 100 100 100 100 100 93 95 50 12 67 25 50 4 5 5 4 0 0 1 0 0 0 0 4 5
99 8 44 100 100 100 100 100 100 100 100 100 100 100 100 100 100 100 100 100 100 100 100 98 77 100 100 100 100 100 100 100 100 99 96 79 68 98 67 4 5 5 5 5 5 5 5 1 1 0 0 5 5 5
10 9 100 100 100 100 100 100 100 100 100 100 100 100 100 100 100 100 100 100 100 100 100 91 100 100 100 100 100 94 92 99 92 100 100 51 55 63 5 5 6 5 5 5 5 5 5 5 5 5 1 5 54 95
15 32 100 100 100 100 100 100 100 100 100 100 100 100 100 100 100 100 100 100 100 100 100 100 100 100 100 100 100 100 97 50 100 100 96 92 99 5 5 5 5 5 5 5 5 5 5 5 5 5 5 5 94 100
34 100 100 100 100 100 100 100 100 100 100 100 100 100 94 100 100 100 100 100 100 100 100 100 100 100 100 100 100 100 97 74 90 100 98 100 85 57 56 5 6 21 8 36 35 10 20 5 9 39 8 5 7 99
100 100 100 100 100 100 100 100 100 100 100 74 83 100 100 100 100 100 100 100 100 100 100 100 100 100 100 100 100 100 98 97 97 96 96 100 84 92 54 10 47 5 5 35 57 23 5 32 89 22 5 5 5 84
100 100 100 100 100 100 100 100 100 75 98 100 100 100 100 100 100 100 100 100 100 100 100 100 100 100 100 100 100 100 90 95 22 99 78 100 100 100 25 5 5 5 98 100 90 23 95 72 5 5 2 5 5 5
100 100 100 100 100 100 100 100 100 99 100 100 100 100 100 90 92 100 100 100 100 100 100 100 100 100 100 100 100 99 26 77 92 99 100 100 100 100 100 87 52 77 99 98 98 100 100 100 100 100 94 5 5 5
100 100 100 100 100 100 100 100 100 100 100 100 100 100 100 100 96 100 100 100 100 100 100 100 100 100 100 100 70 56 67 43 62 100 100 100 100 100 100 100 98 100 100 100 99 86 52 100 100 100 5 1 3 27
100 100 100 100 100 100 100 100 100 100 100 100 100 99 100 100 100 100 100 100 100 100 100 100 100 100 100 100 90 76 46 76 100 100 100 100 100 100 100 100 99 92 99 89 23 5 5 5 4 5 5 0 1 24
100 100 100 100 100 100 100 100 100 100 100 100 100 100 100 100 100 100 100 100 100 100 100 100 100 100 84 70 90 79 100 100 100 88 98 100 100 100 100 100 99 99 99 96 95 26 5 4 5 5 5 5 5 5
100 100 100 100 100 100 100 100 100 100 98 100 100 100 100 100 100 100 100 100 100 100 100 100 100 100 98 96 100 100 100 100 100 99 98 92 100 99 94 82 63 16 10 24 5 5 5 5 5 5 5 5 17 73
100 100 100 100 100 100 100 100 100 100 100 100 100 100 100 100 100 100 100 100 100 100 100 100 100 100 98 100 100 100 100 100 92 82 63 84 69 37 40 5 16 6 5 5 5 5 5 5 5 5 5 5 30 32
100 100 100 100 100 100 100 100 94 100 100 100 100 100 100 100 100 100 100 100 100 100 100 100 71 94 100 100 100 100 100 100 93 89 98 91 73 89 76 15 5 5 5 5 5 5 5 5 5 5 5 5 41 36
100 100 100 100 100 100 100 100 100 100 100 100 100 100 100 100 100 100 100 100 100 100 100 98 100 90 94 95 100 100 100 100 100 84 84 54 29 10 37 5 5 5 5 5 5 5 5 5 5 5 5 5 5 46
100 100 100 100 100 100 100 100 100 100 100 100 100 100 100 100 100 100 96 97 97 100 100 100 97 100 100 99 100 100 100 100 100 94 86 89 99 61 6 5 5 5 5 5 5 5 5 5 5 5 5 5 20 98
100 100 100 100 100 100 100 100 100 100 100 100 100 100 100 100 73 78 99 91 100 100 99 79 99 100 100 100 100 100 100 100 100 90 78 28 20 16 5 5 5 9 7 5 5 5 5 5 5 7 5 6 5 7
100 100 100 100 100 100 100 100 100 100 100 100 100 100 96 76 81 100 100 100 100 100 100 100 100 100 100 100 100 100 100 100 98 98 79 58 29 20 20 8 5 5 5 5 5 5 5 5 36 6 19 7 5 5
100 100 100 100 100 100 100 100 100 100 100 100 100 100 100 96 100 100 100 100 100 100 100 100 100 100 100 100 100 100 100 99 94 58 27 5 5 7 5 5 5 5 5 8 54 5 5 5 56 63 50 5 5 5
100 100 100 100 100 100 100 100 100 100 100 100 100 100 100 100 100 100 100 100 100 100 100 100 100 100 100 100 100 88 51 6 5 5 5 5 5 33 64 72 5 5 5 5 15 16 10 38 25 5 9 35 55 22
100 100 100 100 100 100 100 100 100 100 100 100 100 100 100 100 100 100 100 100 100 100 100 100 100 100 97 91 71 58 13 6 5 5 5 5 5 5 7 65 67 5 5 5 5 5 6 11 29 86 100 98 100 74
100 100 100 100 100 100 100 100 100 100 100 100 100 100 100 100 100 100 100 100 100 100 100 98 99 95 36 7 52 48 33 48 5 5 5 5 5 23 5 5 5 7 9 5 5 5 41 94 100 100 100 100 100 91
100 100 100 100 100 100 100 100 100 100 100 100 100 100 100 100 100 100 98 97 91 76 93 83 83 79 44 56 60 67 65 64 12 61 69 30 5 5 5 5 5 5 5 14 19 93 100 100 100 100 100 100 100 90
100 100 100 100 100 100 100 100 100 100 100 100 99 95 99 100 93 85 57 57 88 81 52 68 80 40 81 75 90 25 6 46 75 45 100 100 68 6 5 5 7 22 78 100 100 100 92 99 95 100 100 100 100 100
88 100 100 100 100 100 100 100 100 97 88 90 83 78 81 94 100 100 100 97 87 75 48 78 73 100 83 78 99 99 86 26 82 55 33 10 5 5 7 34 82 100 100 100 100 100 100 100 100 100 97 96 83 92
63 85 69 72 100 85 65 54 92 80 97 72 74 99 100 75 98 100 100 67 62 92 100 100 69 8 52 90 98 94 98 92 55 5 5 36 93 94 98 100 100 100 100 100 100 100 100 100 100 99 97 64 33 92
77 37 37 22 97 98 54 17 5 5 26 99 84 99 86 48 52 88 99 81 29 77 70 52 17 47 84 91 57 51 64 6 5 21 25 17 40 88 100 100 100 100 100 100 100 100 100 100 98 85 76 60 85 93